QPF
0.00 0.00 0.00 0.00 0.00 0.00 0.00 0.00 0.00 0.00 0.00 0.00 0.00 0.00 0.00 0.00 0.00 0.00 0.00 0.01 0.00 0.01 0.01 0.01 0.01 0.01 0.02 0.02 0.02 0.02 0.02 0.01 0.01 0.01 0.01 0.01 0.02 0.03 0.04 0.04 0.04 0.03 0.04 0.04
0.00 0.00 0.00 0.00 0.00 0.00 0.00 0.00 0.00 0.00 0.00 0.00 0.00 0.00 0.00 0.01 0.01 0.00 0.00 0.00 0.00 0.00 0.01 0.01 0.02 0.01 0.02 0.02 0.03 0.02 0.02 0.02 0.02 0.01 0.02 0.02 0.03 0.03 0.04 0.05 0.06 0.06 0.06 0.05
0.00 0.00 0.00 0.00 0.00 0.00 0.00 0.00 0.00 0.00 0.00 0.00 0.00 0.00 0.00 0.01 0.01 0.00 0.00 0.00 0.00 0.01 0.01 0.02 0.02 0.03 0.03 0.04 0.04 0.04 0.04 0.04 0.03 0.04 0.05 0.04 0.04 0.03 0.04 0.04 0.05 0.06 0.05 0.04
0.00 0.00 0.00 0.00 0.00 0.00 0.00 0.00 0.00 0.00 0.00 0.00 0.00 0.00 0.00 0.00 0.01 0.00 0.00 0.00 0.01 0.01 0.03 0.03 0.04 0.05 0.06 0.05 0.05 0.06 0.06 0.05 0.06 0.08 0.08 0.05 0.05 0.06 0.05 0.03 0.04 0.05 0.05 0.04
0.00 0.00 0.00 0.00 0.00 0.00 0.00 0.00 0.00 0.00 0.00 0.00 0.00 0.00 0.00 0.01 0.01 0.00 0.00 0.01 0.01 0.03 0.04 0.04 0.04 0.05 0.05 0.05 0.05 0.06 0.07 0.07 0.08 0.11 0.09 0.07 0.06 0.05 0.04 0.03 0.02 0.02 0.02 0.02
0.00 0.00 0.00 0.00 0.00 0.00 0.00 0.01 0.00 0.00 0.00 0.00 0.00 0.00 0.01 0.01 0.01 0.01 0.01 0.02 0.03 0.04 0.04 0.03 0.04 0.05 0.06 0.05 0.06 0.08 0.10 0.08 0.08 0.07 0.07 0.06 0.05 0.04 0.03 0.03 0.02 0.01 0.01 0.02
0.00 0.00 0.00 0.00 0.00 0.00 0.00 0.00 0.00 0.00 0.00 0.00 0.01 0.01 0.01 0.01 0.01 0.02 0.03 0.04 0.05 0.04 0.03 0.04 0.05 0.06 0.08 0.09 0.11 0.13 0.14 0.12 0.10 0.07 0.05 0.05 0.05 0.05 0.03 0.02 0.02 0.02 0.01 0.02
0.00 0.00 0.00 0.00 0.00 0.00 0.00 0.00 0.01 0.01 0.01 0.01 0.02 0.02 0.01 0.01 0.01 0.02 0.04 0.05 0.05 0.05 0.05 0.05 0.07 0.10 0.13 0.16 0.20 0.21 0.17 0.12 0.09 0.07 0.05 0.04 0.05 0.07 0.05 0.03 0.02 0.01 0.01 0.01
0.00 0.00 0.00 0.00 0.00 0.00 0.00 0.00 0.01 0.01 0.02 0.02 0.02 0.02 0.02 0.03 0.03 0.04 0.04 0.04 0.04 0.05 0.05 0.06 0.07 0.09 0.15 0.14 0.13 0.12 0.10 0.08 0.05 0.04 0.04 0.05 0.05 0.05 0.04 0.02 0.02 0.01 0.01 0.01
0.01 0.01 0.01 0.01 0.01 0.01 0.01 0.01 0.01 0.01 0.03 0.04 0.04 0.04 0.05 0.05 0.05 0.04 0.03 0.04 0.04 0.04 0.04 0.05 0.05 0.06 0.08 0.11 0.13 0.11 0.07 0.05 0.03 0.03 0.03 0.02 0.02 0.02 0.03 0.03 0.02 0.01 0.01 0.01
0.02 0.03 0.03 0.02 0.03 0.02 0.02 0.02 0.02 0.02 0.04 0.08 0.10 0.10 0.10 0.07 0.07 0.05 0.04 0.04 0.03 0.04 0.04 0.04 0.04 0.04 0.05 0.06 0.06 0.06 0.05 0.04 0.04 0.05 0.05 0.05 0.04 0.05 0.05 0.05 0.04 0.03 0.02 0.01
0.02 0.03 0.04 0.04 0.04 0.04 0.03 0.03 0.03 0.03 0.04 0.05 0.08 0.13 0.13 0.09 0.08 0.07 0.07 0.05 0.03 0.03 0.03 0.03 0.03 0.03 0.04 0.05 0.04 0.03 0.03 0.03 0.05 0.06 0.05 0.05 0.04 0.03 0.03 0.03 0.02 0.01 0.01 0.01
0.03 0.03 0.04 0.04 0.04 0.04 0.05 0.05 0.05 0.04 0.05 0.05 0.05 0.12 0.16 0.13 0.10 0.09 0.08 0.07 0.04 0.02 0.02 0.03 0.03 0.04 0.04 0.04 0.04 0.04 0.05 0.05 0.07 0.07 0.06 0.05 0.05 0.04 0.04 0.03 0.03 0.02 0.01 0.01
0.04 0.04 0.04 0.04 0.04 0.04 0.04 0.04 0.06 0.05 0.04 0.05 0.05 0.06 0.07 0.08 0.09 0.09 0.10 0.09 0.05 0.02 0.02 0.02 0.03 0.04 0.04 0.03 0.05 0.05 0.07 0.07 0.07 0.07 0.06 0.04 0.04 0.03 0.03 0.02 0.02 0.01 0.01 0.00
0.04 0.03 0.04 0.05 0.05 0.04 0.04 0.03 0.04 0.06 0.05 0.05 0.06 0.05 0.04 0.05 0.06 0.07 0.07 0.05 0.02 0.01 0.01 0.02 0.02 0.03 0.03 0.03 0.04 0.05 0.07 0.07 0.07 0.07 0.06 0.05 0.04 0.04 0.04 0.03 0.03 0.02 0.01 0.00
0.04 0.04 0.05 0.07 0.07 0.06 0.05 0.05 0.06 0.08 0.08 0.06 0.05 0.04 0.04 0.04 0.03 0.03 0.03 0.02 0.01 0.02 0.02 0.03 0.03 0.03 0.04 0.03 0.03 0.05 0.05 0.07 0.07 0.06 0.05 0.04 0.03 0.03 0.03 0.03 0.02 0.01 0.01 0.01
0.04 0.04 0.06 0.11 0.13 0.10 0.08 0.08 0.09 0.11 0.09 0.06 0.05 0.04 0.03 0.02 0.01 0.02 0.02 0.02 0.02 0.02 0.01 0.02 0.02 0.02 0.03 0.03 0.03 0.03 0.03 0.04 0.04 0.04 0.03 0.02 0.02 0.02 0.02 0.01 0.01 0.01 0.01 0.01
0.01 0.02 0.02 0.05 0.09 0.11 0.09 0.07 0.06 0.07 0.06 0.05 0.04 0.03 0.01 0.01 0.01 0.02 0.03 0.03 0.03 0.02 0.01 0.01 0.01 0.02 0.02 0.02 0.03 0.04 0.03 0.03 0.04 0.03 0.03 0.03 0.03 0.02 0.02 0.01 0.01 0.01 0.01 0.00
0.01 0.01 0.01 0.02 0.03 0.04 0.05 0.05 0.04 0.04 0.04 0.03 0.02 0.02 0.01 0.01 0.01 0.01 0.02 0.02 0.02 0.02 0.01 0.01 0.01 0.01 0.01 0.01 0.01 0.03 0.05 0.04 0.04 0.03 0.02 0.03 0.02 0.02 0.01 0.01 0.01 0.01 0.01 0.01
0.01 0.01 0.01 0.02 0.02 0.01 0.02 0.03 0.03 0.04 0.04 0.03 0.02 0.02 0.01 0.01 0.01 0.01 0.01 0.02 0.02 0.02 0.02 0.02 0.02 0.01 0.01 0.02 0.02 0.01 0.02 0.03 0.03 0.03 0.02 0.02 0.02 0.02 0.01 0.01 0.01 0.01 0.01 0.01
0.02 0.02 0.02 0.02 0.02 0.02 0.02 0.02 0.03 0.04 0.03 0.03 0.02 0.02 0.02 0.02 0.02 0.02 0.03 0.04 0.04 0.02 0.02 0.02 0.02 0.01 0.01 0.02 0.02 0.02 0.03 0.04 0.05 0.04 0.04 0.03 0.03 0.03 0.02 0.01 0.01 0.01 0.01 0.01
0.02 0.02 0.02 0.02 0.02 0.02 0.03 0.03 0.03 0.02 0.02 0.02 0.02 0.02 0.02 0.02 0.03 0.04 0.05 0.06 0.05 0.03 0.02 0.02 0.02 0.01 0.01 0.02 0.01 0.02 0.03 0.03 0.03 0.03 0.03 0.03 0.03 0.03 0.02 0.02 0.01 0.01 0.01 0.01
0.02 0.02 0.02 0.02 0.02 0.02 0.02 0.03 0.03 0.03 0.03 0.03 0.03 0.03 0.04 0.04 0.05 0.06 0.06 0.05 0.04 0.02 0.02 0.01 0.01 0.01 0.01 0.01 0.01 0.01 0.01 0.01 0.01 0.01 0.01 0.02 0.02 0.03 0.03 0.03 0.03 0.02 0.02 0.02
0.05 0.03 0.02 0.02 0.02 0.03 0.03 0.03 0.02 0.03 0.04 0.04 0.04 0.04 0.05 0.05 0.05 0.06 0.06 0.05 0.04 0.03 0.02 0.02 0.02 0.01 0.01 0.01 0.01 0.01 0.01 0.01 0.01 0.01 0.01 0.02 0.02 0.02 0.02 0.03 0.03 0.03 0.03 0.02
0.07 0.04 0.03 0.02 0.02 0.02 0.03 0.03 0.02 0.03 0.03 0.03 0.03 0.04 0.05 0.04 0.03 0.04 0.04 0.04 0.05 0.05 0.04 0.03 0.02 0.01 0.01 0.01 0.01 0.01 0.01 0.01 0.01 0.01 0.02 0.02 0.02 0.02 0.02 0.03 0.04 0.04 0.04 0.04
0.04 0.04 0.03 0.02 0.02 0.02 0.02 0.02 0.03 0.03 0.04 0.04 0.03 0.03 0.03 0.03 0.03 0.03 0.03 0.03 0.02 0.03 0.03 0.02 0.01 0.01 0.01 0.01 0.01 0.01 0.01 0.01 0.01 0.01 0.02 0.02 0.03 0.03 0.04 0.04 0.04 0.04 0.03 0.03
0.03 0.03 0.03 0.02 0.02 0.02 0.02 0.03 0.02 0.03 0.03 0.03 0.03 0.02 0.02 0.02 0.02 0.02 0.02 0.02 0.02 0.01 0.01 0.01 0.01 0.01 0.01 0.01 0.01 0.01 0.01 0.01 0.02 0.02 0.02 0.03 0.03 0.04 0.04 0.04 0.03 0.03 0.02 0.01
MSLP
1015.38 1015.88 1016.33 1016.72 1017.02 1017.20 1017.25 1017.14 1016.88 1016.48 1016.01 1015.51 1015.05 1014.69 1014.47 1014.41 1014.50 1014.70 1014.95 1015.22 1015.44 1015.60 1015.68 1015.72 1015.73 1015.76 1015.85 1016.03 1016.29 1016.62 1016.99 1017.37 1017.72 1018.00 1018.22 1018.37 1018.47 1018.55 1018.64 1018.77 1018.93 1019.15 1019.42 1019.71
1015.42 1015.86 1016.19 1016.40 1016.50 1016.47 1016.34 1016.10 1015.78 1015.41 1015.04 1014.70 1014.43 1014.28 1014.25 1014.33 1014.51 1014.74 1014.98 1015.20 1015.37 1015.48 1015.53 1015.56 1015.59 1015.66 1015.81 1016.03 1016.34 1016.71 1017.10 1017.50 1017.86 1018.17 1018.41 1018.60 1018.76 1018.89 1019.04 1019.20 1019.41 1019.64 1019.91 1020.19
1015.47 1015.81 1016.01 1016.07 1015.99 1015.81 1015.54 1015.22 1014.87 1014.53 1014.25 1014.03 1013.92 1013.91 1014.00 1014.17 1014.39 1014.63 1014.84 1015.02 1015.14 1015.22 1015.26 1015.30 1015.37 1015.50 1015.70 1015.99 1016.34 1016.74 1017.16 1017.57 1017.94 1018.27 1018.55 1018.79 1019.00 1019.21 1019.42 1019.65 1019.91 1020.18 1020.46 1020.74
1015.51 1015.73 1015.80 1015.72 1015.52 1015.22 1014.86 1014.49 1014.14 1013.84 1013.62 1013.50 1013.49 1013.57 1013.72 1013.92 1014.15 1014.36 1014.54 1014.67 1014.77 1014.83 1014.89 1014.97 1015.10 1015.30 1015.57 1015.92 1016.32 1016.75 1017.19 1017.61 1018.00 1018.35 1018.67 1018.96 1019.23 1019.51 1019.80 1020.11 1020.42 1020.73 1021.04 1021.32
1015.52 1015.62 1015.56 1015.37 1015.07 1014.70 1014.30 1013.91 1013.57 1013.31 1013.15 1013.09 1013.13 1013.24 1013.42 1013.61 1013.81 1013.99 1014.13 1014.23 1014.31 1014.39 1014.49 1014.63 1014.84 1015.11 1015.46 1015.87 1016.31 1016.78 1017.23 1017.66 1018.06 1018.43 1018.78 1019.12 1019.45 1019.81 1020.17 1020.55 1020.92 1021.28 1021.60 1021.89
1015.49 1015.45 1015.28 1015.00 1014.64 1014.24 1013.84 1013.47 1013.16 1012.95 1012.83 1012.81 1012.87 1012.99 1013.15 1013.32 1013.48 1013.61 1013.72 1013.81 1013.89 1014.00 1014.15 1014.36 1014.64 1014.99 1015.40 1015.87 1016.35 1016.83 1017.30 1017.73 1018.14 1018.52 1018.89 1019.26 1019.65 1020.06 1020.49 1020.93 1021.36 1021.75 1022.11 1022.40
1015.39 1015.24 1014.98 1014.65 1014.27 1013.87 1013.49 1013.17 1012.91 1012.75 1012.68 1012.69 1012.76 1012.88 1013.02 1013.15 1013.27 1013.37 1013.45 1013.53 1013.62 1013.76 1013.95 1014.22 1014.56 1014.97 1015.43 1015.92 1016.43 1016.92 1017.38 1017.81 1018.21 1018.59 1018.98 1019.37 1019.80 1020.25 1020.72 1021.20 1021.67 1022.10 1022.48 1022.79
1015.23 1014.99 1014.68 1014.33 1013.96 1013.60 1013.29 1013.03 1012.85 1012.75 1012.73 1012.77 1012.87 1012.98 1013.10 1013.20 1013.29 1013.35 1013.41 1013.48 1013.58 1013.73 1013.95 1014.25 1014.62 1015.05 1015.53 1016.03 1016.52 1017.00 1017.44 1017.85 1018.24 1018.62 1019.00 1019.41 1019.85 1020.32 1020.82 1021.33 1021.82 1022.27 1022.67 1023.00
1015.02 1014.73 1014.41 1014.08 1013.76 1013.48 1013.25 1013.08 1012.99 1012.97 1013.01 1013.10 1013.21 1013.33 1013.44 1013.53 1013.59 1013.63 1013.67 1013.72 1013.80 1013.95 1014.16 1014.45 1014.80 1015.21 1015.67 1016.13 1016.59 1017.03 1017.45 1017.83 1018.19 1018.56 1018.93 1019.33 1019.77 1020.25 1020.75 1021.26 1021.77 1022.24 1022.65 1023.01
1014.80 1014.51 1014.22 1013.94 1013.70 1013.51 1013.39 1013.33 1013.34 1013.40 1013.52 1013.65 1013.80 1013.94 1014.05 1014.12 1014.16 1014.18 1014.19 1014.21 1014.26 1014.36 1014.52 1014.76 1015.05 1015.40 1015.79 1016.19 1016.60 1016.98 1017.35 1017.70 1018.04 1018.38 1018.74 1019.13 1019.56 1020.02 1020.52 1021.02 1021.52 1022.00 1022.43 1022.81
1014.61 1014.36 1014.13 1013.94 1013.80 1013.72 1013.71 1013.76 1013.86 1014.02 1014.20 1014.39 1014.57 1014.73 1014.84 1014.91 1014.93 1014.92 1014.89 1014.86 1014.85 1014.88 1014.96 1015.10 1015.30 1015.56 1015.85 1016.16 1016.49 1016.82 1017.14 1017.45 1017.76 1018.09 1018.44 1018.81 1019.22 1019.67 1020.14 1020.63 1021.11 1021.59 1022.03 1022.44
1014.51 1014.33 1014.18 1014.09 1014.05 1014.08 1014.17 1014.32 1014.51 1014.74 1014.98 1015.21 1015.42 1015.59 1015.70 1015.76 1015.76 1015.72 1015.64 1015.55 1015.46 1015.39 1015.37 1015.40 1015.48 1015.62 1015.81 1016.03 1016.27 1016.54 1016.81 1017.10 1017.39 1017.71 1018.04 1018.41 1018.80 1019.22 1019.67 1020.13 1020.59 1021.06 1021.50 1021.93
1014.52 1014.42 1014.36 1014.37 1014.43 1014.55 1014.73 1014.95 1015.21 1015.49 1015.76 1016.01 1016.23 1016.40 1016.50 1016.54 1016.52 1016.43 1016.30 1016.14 1015.97 1015.81 1015.68 1015.59 1015.56 1015.58 1015.66 1015.79 1015.97 1016.18 1016.42 1016.68 1016.97 1017.27 1017.60 1017.95 1018.33 1018.73 1019.14 1019.57 1020.01 1020.46 1020.89 1021.33
1014.64 1014.62 1014.66 1014.75 1014.89 1015.09 1015.33 1015.60 1015.88 1016.18 1016.45 1016.70 1016.91 1017.05 1017.13 1017.14 1017.08 1016.95 1016.76 1016.54 1016.30 1016.06 1015.84 1015.66 1015.53 1015.46 1015.45 1015.51 1015.62 1015.79 1016.00 1016.25 1016.53 1016.82 1017.15 1017.48 1017.84 1018.21 1018.59 1018.98 1019.39 1019.80 1020.23 1020.65
1014.86 1014.92 1015.03 1015.19 1015.40 1015.64 1015.91 1016.20 1016.48 1016.75 1017.00 1017.22 1017.38 1017.48 1017.52 1017.49 1017.39 1017.22 1017.00 1016.73 1016.44 1016.15 1015.87 1015.62 1015.42 1015.29 1015.22 1015.22 1015.29 1015.42 1015.61 1015.83 1016.09 1016.38 1016.68 1016.99 1017.31 1017.65 1017.99 1018.35 1018.72 1019.10 1019.50 1019.91
1015.16 1015.28 1015.45 1015.66 1015.91 1016.17 1016.44 1016.71 1016.96 1017.19 1017.39 1017.54 1017.64 1017.68 1017.67 1017.59 1017.45 1017.26 1017.01 1016.73 1016.42 1016.10 1015.80 1015.53 1015.30 1015.13 1015.02 1014.99 1015.02 1015.11 1015.26 1015.45 1015.67 1015.91 1016.17 1016.45 1016.72 1017.01 1017.31 1017.63 1017.96 1018.32 1018.69 1019.09
1015.50 1015.67 1015.88 1016.13 1016.39 1016.65 1016.90 1017.13 1017.33 1017.49 1017.60 1017.68 1017.70 1017.67 1017.60 1017.48 1017.31 1017.10 1016.86 1016.58 1016.28 1015.98 1015.69 1015.43 1015.20 1015.02 1014.90 1014.83 1014.82 1014.86 1014.95 1015.08 1015.23 1015.40 1015.59 1015.80 1016.02 1016.25 1016.50 1016.78 1017.08 1017.42 1017.78 1018.17
1015.86 1016.06 1016.30 1016.56 1016.82 1017.06 1017.28 1017.45 1017.58 1017.65 1017.68 1017.66 1017.60 1017.51 1017.37 1017.21 1017.03 1016.82 1016.59 1016.34 1016.09 1015.83 1015.59 1015.36 1015.15 1014.98 1014.84 1014.74 1014.68 1014.65 1014.66 1014.69 1014.74 1014.81 1014.90 1015.01 1015.15 1015.31 1015.52 1015.76 1016.05 1016.38 1016.76 1017.17
1016.21 1016.43 1016.68 1016.93 1017.17 1017.38 1017.55 1017.66 1017.71 1017.70 1017.63 1017.53 1017.38 1017.22 1017.03 1016.84 1016.65 1016.45 1016.25 1016.06 1015.87 1015.68 1015.49 1015.32 1015.15 1014.98 1014.84 1014.70 1014.57 1014.45 1014.34 1014.25 1014.16 1014.10 1014.07 1014.07 1014.11 1014.21 1014.37 1014.59 1014.88 1015.24 1015.65 1016.11
1016.56 1016.77 1017.01 1017.24 1017.45 1017.61 1017.72 1017.75 1017.72 1017.63 1017.48 1017.29 1017.07 1016.84 1016.61 1016.40 1016.20 1016.03 1015.87 1015.74 1015.62 1015.50 1015.39 1015.27 1015.14 1014.99 1014.82 1014.64 1014.43 1014.21 1013.98 1013.74 1013.52 1013.31 1013.14 1013.02 1012.98 1013.01 1013.13 1013.35 1013.66 1014.06 1014.54 1015.07
1016.88 1017.07 1017.27 1017.46 1017.62 1017.72 1017.76 1017.73 1017.62 1017.44 1017.22 1016.95 1016.67 1016.39 1016.13 1015.90 1015.70 1015.56 1015.45 1015.37 1015.32 1015.28 1015.23 1015.17 1015.08 1014.95 1014.77 1014.54 1014.26 1013.93 1013.58 1013.21 1012.84 1012.49 1012.20 1011.97 1011.84 1011.82 1011.92 1012.15 1012.50 1012.96 1013.51 1014.14
1017.16 1017.30 1017.45 1017.58 1017.68 1017.71 1017.68 1017.57 1017.39 1017.14 1016.84 1016.52 1016.18 1015.87 1015.58 1015.34 1015.16 1015.04 1014.97 1014.95 1014.96 1014.99 1015.00 1014.99 1014.94 1014.82 1014.64 1014.37 1014.03 1013.63 1013.17 1012.69 1012.21 1011.76 1011.36 1011.05 1010.86 1010.81 1010.90 1011.14 1011.53 1012.06 1012.69 1013.41
1017.39 1017.46 1017.54 1017.59 1017.61 1017.57 1017.46 1017.28 1017.03 1016.73 1016.38 1016.01 1015.64 1015.29 1014.99 1014.75 1014.58 1014.48 1014.45 1014.48 1014.54 1014.62 1014.69 1014.73 1014.71 1014.61 1014.43 1014.16 1013.79 1013.34 1012.83 1012.28 1011.72 1011.20 1010.74 1010.39 1010.16 1010.09 1010.19 1010.45 1010.88 1011.46 1012.16 1012.95
1017.53 1017.52 1017.51 1017.48 1017.41 1017.29 1017.12 1016.88 1016.58 1016.24 1015.85 1015.46 1015.07 1014.72 1014.41 1014.18 1014.02 1013.94 1013.93 1013.99 1014.09 1014.21 1014.32 1014.40 1014.42 1014.36 1014.20 1013.94 1013.57 1013.12 1012.59 1012.03 1011.46 1010.91 1010.44 1010.08 1009.85 1009.78 1009.88 1010.16 1010.62 1011.22 1011.96 1012.78
1017.54 1017.44 1017.35 1017.23 1017.10 1016.92 1016.69 1016.41 1016.09 1015.72 1015.33 1014.93 1014.55 1014.20 1013.91 1013.68 1013.53 1013.47 1013.48 1013.55 1013.68 1013.82 1013.96 1014.08 1014.13 1014.10 1013.98 1013.76 1013.43 1013.01 1012.52 1011.99 1011.45 1010.94 1010.49 1010.15 1009.93 1009.88 1009.99 1010.28 1010.73 1011.33 1012.05 1012.86
1017.38 1017.21 1017.05 1016.88 1016.69 1016.47 1016.22 1015.93 1015.61 1015.26 1014.89 1014.51 1014.15 1013.83 1013.56 1013.35 1013.21 1013.16 1013.17 1013.25 1013.38 1013.54 1013.69 1013.82 1013.90 1013.91 1013.84 1013.66 1013.40 1013.05 1012.63 1012.17 1011.70 1011.25 1010.86 1010.56 1010.38 1010.34 1010.45 1010.73 1011.15 1011.71 1012.38 1013.13
1017.04 1016.83 1016.62 1016.42 1016.22 1016.00 1015.76 1015.50 1015.21 1014.91 1014.59 1014.27 1013.96 1013.68 1013.44 1013.26 1013.14 1013.08 1013.09 1013.16 1013.28 1013.42 1013.56 1013.70 1013.79 1013.83 1013.79 1013.68 1013.48 1013.21 1012.88 1012.52 1012.13 1011.77 1011.45 1011.21 1011.06 1011.04 1011.15 1011.39 1011.76 1012.25 1012.83 1013.48
Thickness
5756 5766 5771 5774 5772 5766 5766 5758 5751 5761 5766 5786 5797 5803 5806 5806 5804 5802 5798 5796 5794 5791 5787 5784 5780 5776 5773 5768 5764 5759 5754 5748 5744 5740 5736 5733 5729 5726 5723 5720 5717 5715 5713 5711
5752 5762 5767 5769 5772 5769 5770 5767 5767 5772 5774 5794 5799 5802 5802 5802 5800 5798 5797 5796 5793 5790 5786 5782 5778 5774 5770 5766 5761 5756 5751 5745 5741 5737 5733 5729 5725 5722 5718 5715 5712 5710 5707 5705
5729 5750 5756 5747 5765 5767 5770 5772 5771 5768 5781 5792 5792 5795 5798 5799 5799 5798 5797 5795 5791 5788 5785 5780 5776 5772 5767 5763 5759 5753 5746 5742 5738 5734 5729 5725 5722 5718 5713 5710 5708 5705 5702 5698
5718 5732 5721 5746 5772 5775 5771 5772 5776 5781 5785 5788 5792 5796 5799 5800 5798 5796 5795 5793 5789 5786 5782 5778 5774 5770 5764 5760 5754 5748 5742 5738 5734 5730 5725 5720 5716 5712 5707 5703 5701 5697 5694 5691
5704 5710 5724 5748 5766 5768 5764 5765 5776 5777 5782 5786 5791 5791 5790 5796 5797 5795 5793 5791 5788 5785 5781 5775 5771 5766 5760 5754 5749 5743 5738 5733 5729 5726 5721 5716 5711 5706 5701 5697 5693 5689 5686 5683
5701 5705 5707 5737 5764 5773 5766 5754 5773 5775 5776 5780 5783 5772 5779 5792 5793 5791 5789 5786 5783 5779 5774 5769 5764 5760 5754 5747 5742 5737 5732 5728 5724 5720 5715 5710 5705 5700 5695 5691 5686 5682 5678 5674
5698 5704 5715 5743 5758 5764 5741 5748 5770 5772 5773 5775 5775 5777 5783 5787 5786 5785 5783 5781 5777 5771 5766 5762 5758 5753 5747 5741 5736 5732 5727 5721 5717 5713 5709 5704 5698 5693 5688 5684 5679 5674 5670 5666
5690 5697 5709 5744 5750 5745 5747 5761 5765 5767 5770 5771 5772 5775 5777 5777 5777 5776 5774 5772 5768 5762 5757 5753 5750 5746 5740 5734 5730 5726 5722 5715 5709 5705 5702 5697 5691 5685 5680 5676 5671 5666 5661 5657
5697 5704 5723 5734 5740 5748 5752 5754 5758 5761 5764 5766 5765 5765 5765 5765 5765 5764 5764 5761 5758 5753 5749 5745 5742 5739 5733 5727 5723 5718 5713 5707 5702 5696 5692 5687 5682 5677 5672 5668 5663 5658 5654 5650
5695 5707 5719 5727 5735 5742 5747 5749 5752 5755 5757 5758 5756 5756 5755 5753 5752 5751 5751 5750 5747 5744 5739 5735 5732 5729 5725 5720 5716 5710 5704 5698 5693 5688 5682 5676 5672 5668 5665 5660 5656 5652 5647 5642
5687 5700 5711 5720 5726 5732 5738 5742 5744 5745 5747 5748 5748 5746 5745 5743 5740 5739 5738 5737 5736 5733 5730 5726 5723 5720 5716 5712 5708 5702 5696 5690 5684 5679 5674 5667 5662 5658 5655 5651 5648 5644 5639 5635
5681 5694 5698 5706 5716 5724 5726 5728 5732 5733 5733 5736 5738 5737 5736 5734 5732 5730 5727 5725 5724 5723 5720 5717 5714 5711 5707 5703 5699 5695 5688 5682 5676 5670 5665 5659 5654 5647 5643 5641 5638 5635 5631 5627
5683 5691 5694 5701 5708 5713 5716 5718 5720 5723 5724 5723 5725 5726 5725 5722 5722 5720 5718 5716 5714 5712 5710 5707 5704 5701 5698 5695 5691 5686 5681 5675 5669 5663 5658 5652 5648 5643 5636 5630 5628 5625 5622 5619
5680 5684 5686 5692 5697 5703 5705 5707 5708 5710 5711 5712 5713 5715 5714 5712 5711 5710 5707 5706 5705 5702 5699 5697 5695 5691 5689 5686 5682 5677 5672 5667 5661 5656 5651 5646 5640 5636 5631 5626 5621 5615 5611 5609
5672 5677 5679 5684 5688 5691 5693 5695 5696 5695 5697 5699 5702 5703 5702 5701 5699 5698 5696 5696 5694 5692 5689 5687 5685 5682 5680 5677 5673 5668 5663 5658 5653 5647 5642 5637 5631 5627 5623 5618 5613 5608 5603 5600
5664 5669 5672 5675 5677 5680 5682 5683 5684 5684 5686 5688 5690 5691 5691 5690 5689 5687 5685 5685 5682 5680 5679 5678 5676 5673 5670 5667 5664 5659 5655 5650 5645 5639 5633 5628 5623 5619 5614 5609 5605 5601 5597 5593
5653 5657 5661 5663 5667 5670 5673 5674 5675 5676 5677 5678 5679 5680 5680 5679 5677 5675 5674 5674 5673 5671 5670 5669 5667 5664 5661 5658 5655 5651 5646 5641 5637 5631 5626 5621 5616 5611 5606 5601 5597 5593 5589 5586
5649 5653 5657 5659 5660 5662 5664 5666 5668 5669 5669 5670 5670 5669 5668 5667 5667 5666 5664 5663 5662 5660 5660 5660 5658 5655 5652 5648 5645 5641 5637 5632 5628 5623 5618 5613 5608 5604 5599 5594 5590 5586 5582 5578
5642 5645 5649 5651 5652 5654 5656 5657 5659 5660 5662 5662 5661 5659 5658 5658 5657 5656 5655 5653 5652 5651 5649 5649 5648 5645 5642 5639 5635 5632 5627 5623 5618 5614 5610 5605 5601 5596 5592 5588 5584 5580 5576 5573
5634 5637 5640 5642 5644 5646 5648 5650 5652 5653 5653 5652 5651 5649 5647 5647 5646 5645 5645 5643 5643 5642 5641 5639 5638 5635 5632 5629 5626 5623 5619 5615 5610 5606 5602 5598 5594 5590 5586 5582 5578 5575 5571 5567
5625 5629 5631 5633 5635 5638 5640 5642 5643 5643 5644 5643 5642 5641 5639 5638 5637 5636 5635 5634 5633 5632 5632 5630 5628 5626 5623 5620 5617 5614 5610 5607 5603 5599 5596 5592 5588 5584 5580 5577 5573 5569 5566 5562
5616 5619 5621 5623 5625 5628 5630 5632 5634 5635 5636 5635 5634 5633 5632 5630 5628 5627 5626 5625 5624 5623 5622 5621 5619 5617 5614 5611 5608 5605 5602 5599 5596 5593 5589 5586 5582 5579 5575 5572 5568 5564 5560 5556
5607 5610 5612 5615 5617 5619 5621 5623 5625 5627 5627 5626 5625 5624 5624 5622 5621 5619 5617 5616 5615 5614 5613 5612 5610 5608 5605 5603 5600 5597 5594 5591 5588 5586 5583 5580 5577 5574 5570 5566 5563 5559 5555 5551
5599 5602 5604 5606 5608 5610 5612 5614 5616 5617 5617 5616 5616 5616 5615 5613 5611 5610 5610 5608 5607 5606 5604 5602 5600 5598 5596 5595 5592 5589 5586 5584 5581 5579 5577 5574 5571 5568 5564 5560 5557 5553 5549 5545
5591 5594 5596 5598 5600 5602 5604 5605 5606 5606 5607 5606 5606 5607 5606 5606 5604 5602 5601 5599 5598 5597 5595 5593 5591 5589 5588 5587 5585 5582 5579 5577 5575 5573 5570 5568 5565 5562 5558 5555 5552 5548 5544 5540
5584 5586 5588 5590 5592 5594 5596 5597 5598 5598 5598 5597 5597 5597 5596 5596 5595 5593 5592 5591 5590 5589 5587 5585 5583 5582 5581 5579 5578 5575 5573 5570 5568 5566 5564 5561 5559 5556 5552 5549 5545 5541 5538 5534
5577 5579 5581 5583 5585 5587 5589 5590 5591 5591 5590 5590 5589 5588 5587 5587 5586 5585 5585 5583 5582 5580 5579 5578 5576 5575 5574 5572 5570 5568 5566 5564 5562 5560 5557 5555 5552 5549 5546 5542 5539 5535 5532 5528